• In Hungary
  • List of Countries
  • For 7 days
  • Water Temperature
  • Satellite Maps
  • Weather Map
  • News
  • Weather Widgets
  • user-avatar
    Login

    Hourly Weather Freising

    Today, 24 May, Thursday

    Time Temperature Precipitation Wind Pressure Humidity
    00:00 +16°C° 0.5 mm 1 mps 722 mmHg 91%
    01:00 +15°C° 0 mm 1 mps 722 mmHg 93%
    02:00 +15°C° 0.3 mm 1 mps 722 mmHg 94%
    03:00 +14°C° 0.3 mm 1 mps 722 mmHg 94%
    04:00 +14°C° 0.3 mm 1 mps 722 mmHg 95%
    05:00 +15°C° 0.6 mm 1 mps 722 mmHg 94%
    06:00 +15°C° 0.6 mm 1 mps 722 mmHg 93%
    07:00 +16°C° 0 mm 1 mps 722 mmHg 93%
    08:00 +18°C° 0.3 mm 1 mps 722 mmHg 90%
    09:00 +19°C° 0.3 mm 1 mps 722 mmHg 87%
    10:00 +20°C° 0.3 mm 1 mps 722 mmHg 84%
    11:00 +21°C° 0.3 mm 1 mps 722 mmHg 78%
    12:00 +22°C° 0.3 mm 1 mps 722 mmHg 73%
    13:00 +23°C° 0.3 mm 1 mps 722 mmHg 68%
    14:00 +23°C° 0.7 mm 1 mps 722 mmHg 68%
    15:00 +23°C° 0.7 mm 1 mps 722 mmHg 69%
    16:00 +23°C° 0.7 mm 1 mps 721 mmHg 69%
    17:00 +22°C° 0.7 mm 1 mps 721 mmHg 75%
    18:00 +21°C° 0.7 mm 1 mps 721 mmHg 81%
    19:00 +20°C° 0.7 mm 1 mps 721 mmHg 87%
    20:00 +19°C° 0.1 mm 1 mps 722 mmHg 89%
    21:00 +18°C° 0.1 mm 1 mps 722 mmHg 90%
    22:00 +16°C° 0.1 mm 1 mps 722 mmHg 92%
    23:00 +16°C° 0.5 mm 1 mps 722 mmHg 93%

    Tomorrow, 25 May, Friday

    Time Temperature Precipitation Wind Pressure Humidity
    00:00 +15°C° 0.5 mm 1 mps 722 mmHg 94%
    01:00 +15°C° 0.5 mm 1 mps 722 mmHg 94%
    02:00 +14°C° 0.1 mm 1 mps 722 mmHg 94%
    03:00 +14°C° 0.1 mm 1 mps 722 mmHg 95%
    04:00 +13°C° 0.1 mm 1 mps 722 mmHg 95%
    05:00 +15°C° 0 mm 1 mps 722 mmHg 93%
    06:00 +16°C° 0 mm 1 mps 722 mmHg 90%
    07:00 +18°C° 0 mm 1 mps 722 mmHg 88%
    08:00 +19°C° 0.3 mm 1 mps 723 mmHg 82%
    09:00 +21°C° 0.3 mm 1 mps 723 mmHg 76%
    10:00 +23°C° 0.3 mm 1 mps 723 mmHg 70%
    11:00 +24°C° 0.5 mm 1 mps 723 mmHg 67%
    12:00 +24°C° 0.5 mm 2 mps 723 mmHg 63%
    13:00 +25°C° 0.5 mm 2 mps 723 mmHg 60%
    14:00 +25°C° 0.4 mm 2 mps 722 mmHg 63%
    15:00 +25°C° 0.4 mm 2 mps 722 mmHg 65%
    16:00 +24°C° 0.4 mm 2 mps 722 mmHg 68%
    17:00 +23°C° 0.3 mm 2 mps 722 mmHg 74%
    18:00 +21°C° 0.3 mm 2 mps 722 mmHg 81%
    19:00 +20°C° 0.3 mm 2 mps 723 mmHg 87%
    20:00 +19°C° 0 mm 2 mps 723 mmHg 90%
    21:00 +18°C° 0 mm 1 mps 723 mmHg 92%
    22:00 +16°C° 0 mm 1 mps 723 mmHg 94%
    23:00 +16°C° 0 mm 1 mps 723 mmHg 95%

    Day after tomorrow, 26 May, Saturday

    Time Temperature Precipitation Wind Pressure Humidity
    00:00 +15°C° 0 mm 1 mps 723 mmHg 95%
    01:00 +15°C° 0 mm 1 mps 723 mmHg 96%
    02:00 +14°C° 0 mm 1 mps 723 mmHg 96%
    03:00 +14°C° 0 mm 1 mps 723 mmHg 96%
    04:00 +13°C° 0 mm 1 mps 723 mmHg 96%
    05:00 +15°C° 0 mm 1 mps 723 mmHg 93%
    06:00 +16°C° 0 mm 1 mps 723 mmHg 91%
    07:00 +18°C° 0 mm 1 mps 724 mmHg 88%
    08:00 +19°C° 0 mm 2 mps 724 mmHg 81%
    09:00 +20°C° 0 mm 2 mps 724 mmHg 74%
    10:00 +22°C° 0 mm 3 mps 724 mmHg 66%
    11:00 +24°C° 0 mm 3 mps 724 mmHg 63%
    12:00 +25°C° 0 mm 3 mps 724 mmHg 60%
    13:00 +26°C° 0 mm 3 mps 724 mmHg 57%
    14:00 +26°C° 0 mm 3 mps 723 mmHg 57%
    15:00 +26°C° 0 mm 3 mps 723 mmHg 56%
    16:00 +27°C° 0 mm 3 mps 723 mmHg 56%
    17:00 +25°C° 0 mm 2 mps 723 mmHg 62%
    18:00 +24°C° 0 mm 2 mps 723 mmHg 68%
    19:00 +23°C° 0 mm 1 mps 723 mmHg 74%
    20:00 +20°C° 0 mm 2 mps 724 mmHg 78%
    21:00 +19°C° 0 mm 2 mps 724 mmHg 82%
    22:00 +18°C° 0 mm 2 mps 724 mmHg 86%
    23:00 +17°C° 0 mm 2 mps 724 mmHg 88%

    27 May, Sunday

    Time Temperature Precipitation Wind Pressure Humidity
    00:00 +16°C° 0 mm 2 mps 724 mmHg 90%
    01:00 +16°C° 0 mm 1 mps 723 mmHg 92%
    02:00 +15°C° 0 mm 1 mps 723 mmHg 92%
    03:00 +15°C° 0 mm 1 mps 723 mmHg 93%
    04:00 +15°C° 0 mm 1 mps 723 mmHg 93%
    05:00 +16°C° 0 mm 1 mps 723 mmHg 90%
    06:00 +17°C° 0 mm 2 mps 723 mmHg 87%
    07:00 +18°C° 0 mm 2 mps 723 mmHg 84%
    08:00 +20°C° 0 mm 2 mps 723 mmHg 78%
    09:00 +23°C° 0 mm 2 mps 723 mmHg 72%
    10:00 +25°C° 0 mm 3 mps 723 mmHg 67%
    11:00 +26°C° 0 mm 3 mps 723 mmHg 63%
    12:00 +26°C° 0 mm 3 mps 723 mmHg 60%
    13:00 +27°C° 0 mm 3 mps 723 mmHg 57%
    14:00 +28°C° 0 mm 3 mps 723 mmHg 56%
    15:00 +28°C° 0 mm 3 mps 722 mmHg 56%
    16:00 +28°C° 0 mm 3 mps 722 mmHg 56%
    17:00 +27°C° 0 mm 2 mps 722 mmHg 62%
    18:00 +25°C° 0 mm 2 mps 722 mmHg 68%
    19:00 +24°C° 0 mm 2 mps 722 mmHg 75%
    20:00 +23°C° 0 mm 2 mps 722 mmHg 79%
    21:00 +20°C° 0 mm 2 mps 722 mmHg 84%
    22:00 +19°C° 0 mm 2 mps 723 mmHg 88%
    23:00 +18°C° 0 mm 3 mps 722 mmHg 90%

    28 May, Monday

    Time Temperature Precipitation Wind Pressure Humidity
    00:00 +18°C° 0 mm 3 mps 722 mmHg 91%
    01:00 +17°C° 0 mm 3 mps 722 mmHg 93%
    02:00 +17°C° 0 mm 2 mps 722 mmHg 93%
    03:00 +17°C° 0 mm 2 mps 722 mmHg 94%
    04:00 +16°C° 0 mm 2 mps 721 mmHg 94%
    05:00 +17°C° 0 mm 2 mps 722 mmHg 91%
    06:00 +18°C° 0 mm 2 mps 722 mmHg 88%
    07:00 +19°C° 0 mm 2 mps 722 mmHg 84%
    08:00 +21°C° 0 mm 2 mps 722 mmHg 78%
    09:00 +23°C° 0 mm 2 mps 722 mmHg 73%
    10:00 +25°C° 0 mm 2 mps 722 mmHg 67%
    11:00 +26°C° 0 mm 3 mps 722 mmHg 63%
    12:00 +27°C° 0 mm 3 mps 722 mmHg 60%
    13:00 +29°C° 0 mm 3 mps 722 mmHg 56%
    14:00 +29°C° 0 mm 3 mps 721 mmHg 57%
    15:00 +29°C° 0 mm 3 mps 721 mmHg 57%
    16:00 +29°C° 0 mm 4 mps 720 mmHg 58%
    17:00 +28°C° 0 mm 3 mps 720 mmHg 64%
    18:00 +27°C° 0 mm 3 mps 720 mmHg 70%
    19:00 +25°C° 0 mm 2 mps 720 mmHg 76%
    20:00 +24°C° 0 mm 3 mps 720 mmHg 79%
    21:00 +22°C° 0 mm 3 mps 720 mmHg 82%
    22:00 +21°C° 0 mm 3 mps 720 mmHg 85%
    23:00 +20°C° 0 mm 3 mps 720 mmHg 85%

    29 May, Tuesday

    Time Temperature Precipitation Wind Pressure Humidity
    00:00 +19°C° 0 mm 2 mps 720 mmHg 86%
    01:00 +19°C° 0 mm 2 mps 720 mmHg 87%
    02:00 +18°C° 0.1 mm 2 mps 720 mmHg 88%
    03:00 +18°C° 0.1 mm 2 mps 720 mmHg 88%
    04:00 +17°C° 0.1 mm 2 mps 720 mmHg 89%
    05:00 +18°C° 0 mm 3 mps 720 mmHg 87%
    06:00 +19°C° 0 mm 3 mps 721 mmHg 85%
    07:00 +20°C° 0 mm 3 mps 721 mmHg 83%
    08:00 +22°C° 0 mm 3 mps 721 mmHg 79%
    09:00 +24°C° 0 mm 2 mps 721 mmHg 75%
    10:00 +26°C° 0 mm 2 mps 721 mmHg 71%
    11:00 +26°C° 0 mm 2 mps 721 mmHg 69%
    12:00 +27°C° 0 mm 2 mps 721 mmHg 66%
    13:00 +28°C° 0 mm 2 mps 721 mmHg 63%
    14:00 +28°C° 0.3 mm 2 mps 721 mmHg 65%
    15:00 +28°C° 0.3 mm 2 mps 720 mmHg 68%
    16:00 +28°C° 0.3 mm 2 mps 720 mmHg 70%
    17:00 +26°C° 1.5 mm 2 mps 720 mmHg 75%
    18:00 +25°C° 1.5 mm 2 mps 720 mmHg 81%
    19:00 +23°C° 1.5 mm 1 mps 720 mmHg 86%
    20:00 +23°C° 0.2 mm 1 mps 720 mmHg 86%
    21:00 +22°C° 0.2 mm 1 mps 721 mmHg 87%
    22:00 +21°C° 0.2 mm 1 mps 721 mmHg 87%
    23:00 +21°C° 0.1 mm 1 mps 721 mmHg 89%
    Show more